| time (UTC) | temp C | wind direction | speed KPH | gust KPH | rain 1hr cm | rain 24hr cm | rain mn cm | humidity % | barometer mb |
| 20260505024005 | 21 | 243 | 0.0 | 0.0 | 0.00 | 0.00 | 0.00 | 93 | 1013.3 |
| 20260505023010 | 21 | 243 | 0.0 | 0.0 | 0.00 | 0.00 | 0.00 | 94 | 1013.5 |
| 20260505022006 | 22 | 243 | 0.0 | 0.0 | 0.00 | 0.00 | 0.00 | 93 | 1013.7 |
| 20260505021010 | 22 | 243 | 0.0 | 0.0 | 0.00 | 0.00 | 0.00 | 93 | 1013.9 |
| 20260505020005 | 22 | 243 | 0.0 | 0.0 | 0.00 | 0.00 | 0.00 | 93 | 1014.2 |
| 20260505015005 | 22 | 243 | 0.0 | 0.0 | 0.00 | 0.00 | 0.00 | 93 | 1014.1 |
| 20260505012005 | 21 | 244 | 0.0 | 0.0 | 0.00 | 0.00 | 0.00 | 92 | 1014.6 |
| 20260505011005 | 21 | 243 | 0.0 | 0.0 | 0.00 | 0.00 | 0.00 | 94 | 1014.6 |
| 20260505010006 | 21 | 243 | 0.0 | 1.6 | 0.00 | 0.00 | 0.00 | 94 | 1014.8 |
| 20260505005005 | 21 | 243 | 0.0 | 0.0 | 0.00 | 0.00 | 0.00 | 95 | 1015.2 |
| 20260505004006 | 21 | 243 | 0.0 | 0.0 | 0.00 | 0.00 | 0.00 | 96 | 1015.3 |
| 20260505003006 | 20 | 243 | 0.0 | 0.0 | 0.00 | 0.00 | 0.00 | 96 | 1015.3 |
| 20260505001006 | 20 | 243 | 0.0 | 0.0 | 0.00 | 0.00 | 0.00 | 97 | 1015.6 |
| 20260505000010 | 19 | 243 | 0.0 | 0.0 | 0.00 | 0.00 | 0.00 | 97 | 1015.6 |
| 20260504235005 | 19 | 243 | 0.0 | 0.0 | 0.00 | 0.00 | 0.00 | 97 | 1015.7 |
| 20260504234006 | 18 | 243 | 0.0 | 0.0 | 0.00 | 0.00 | 0.00 | 97 | 1015.8 |
| 20260504233006 | 18 | 243 | 0.0 | 0.0 | 0.00 | 0.00 | 0.00 | 97 | 1015.8 |
| 20260504231006 | 18 | 243 | 0.0 | 0.0 | 0.00 | 0.00 | 0.00 | 98 | 1015.9 |
| 20260504230010 | 18 | 243 | 0.0 | 0.0 | 0.00 | 0.00 | 0.00 | 98 | 1015.7 |
| 20260504225006 | 18 | 243 | 0.0 | 0.0 | 0.00 | 0.00 | 0.00 | 98 | 1015.8 |
| 20260504224006 | 18 | 243 | 0.0 | 0.0 | 0.00 | 0.00 | 0.00 | 99 | 1015.8 |
| 20260504222006 | 17 | 243 | 0.0 | 0.0 | 0.00 | 0.00 | 0.00 | 99 | 1015.7 |
| 20260504221006 | 17 | 243 | 0.0 | 0.0 | 0.00 | 0.00 | 0.00 | 99 | 1015.7 |
| 20260504220006 | 17 | 243 | 0.0 | 0.0 | 0.00 | 0.00 | 0.00 | 99 | 1015.7 |
| 20260504215005 | 17 | 243 | 0.0 | 0.0 | 0.00 | 0.00 | 0.00 | 99 | 1015.7 |
| 20260504212006 | 17 | 243 | 0.0 | 0.0 | 0.00 | 0.00 | 0.00 | 98 | 1015.6 |
| 20260504211006 | 17 | 243 | 0.0 | 0.0 | 0.00 | 0.00 | 0.00 | 98 | 1015.5 |
| 20260504210005 | 17 | 243 | 0.0 | 0.0 | 0.00 | 0.00 | 0.00 | 98 | 1015.4 |
| 20260504205005 | 17 | 243 | 0.0 | 0.0 | 0.00 | 0.00 | 0.00 | 98 | 1015.4 |
| 20260504204006 | 17 | 243 | 0.0 | 0.0 | 0.00 | 0.00 | 0.00 | 98 | 1015.3 |
| 20260504202005 | 17 | 243 | 0.0 | 0.0 | 0.00 | 0.00 | 0.00 | 98 | 1015.3 |
| 20260504201005 | 17 | 243 | 0.0 | 0.0 | 0.00 | 0.00 | 0.00 | 98 | 1015.2 |
| 20260504200006 | 17 | 243 | 0.0 | 0.0 | 0.00 | 0.00 | 0.00 | 98 | 1015.0 |
| 20260504195005 | 17 | 243 | 0.0 | 0.0 | 0.00 | 0.00 | 0.00 | 98 | 1014.9 |
| 20260504194006 | 17 | 243 | 0.0 | 0.0 | 0.00 | 0.00 | 0.00 | 98 | 1014.7 |
| 20260504193006 | 17 | 243 | 0.0 | 0.0 | 0.00 | 0.00 | 0.00 | 98 | 1014.6 |
| 20260504192005 | 17 | 243 | 0.0 | 0.0 | 0.00 | 0.00 | 0.00 | 98 | 1014.5 |
| 20260504185005 | 17 | 243 | 0.0 | 0.0 | 0.00 | 0.00 | 0.00 | 98 | 1014.5 |
| 20260504183005 | 17 | 243 | 0.0 | 0.0 | 0.00 | 0.00 | 0.00 | 98 | 1014.4 |
| 20260504182005 | 17 | 244 | 0.0 | 0.0 | 0.00 | 0.00 | 0.00 | 98 | 1014.3 |
| 20260504181006 | 18 | 243 | 0.0 | 0.0 | 0.00 | 0.00 | 0.00 | 98 | 1014.2 |
| 20260504180006 | 18 | 243 | 0.0 | 0.0 | 0.00 | 0.00 | 0.00 | 98 | 1014.1 |
| 20260504175005 | 18 | 243 | 0.0 | 0.0 | 0.00 | 0.00 | 0.00 | 98 | 1014.0 |
| 20260504173010 | 18 | 243 | 0.0 | 0.0 | 0.00 | 0.00 | 0.00 | 98 | 1014.1 |
| 20260504172005 | 18 | 243 | 0.0 | 0.0 | 0.00 | 0.00 | 0.00 | 98 | 1014.2 |
| 20260504171005 | 18 | 243 | 0.0 | 0.0 | 0.00 | 0.00 | 0.00 | 98 | 1014.1 |
| 20260504151005 | 18 | 243 | 0.0 | 0.0 | 0.00 | 0.00 | 0.00 | 98 | 1014.8 |
| 20260504141005 | 18 | 243 | 0.0 | 0.0 | 0.00 | 0.00 | 0.00 | 98 | 1015.2 |
| 20260504082005 | 20 | 243 | 0.0 | 0.0 | 0.00 | 0.00 | 0.05 | 96 | 1015.5 |
| 20260504050006 | 21 | 267 | 0.0 | 0.0 | 0.00 | 0.00 | 0.05 | 93 | 1014.0 |
| 20260504045005 | 21 | 222 | 0.0 | 0.0 | 0.00 | 0.00 | 0.05 | 93 | 1014.0 |
| 20260504044005 | 22 | 222 | 0.0 | 0.0 | 0.00 | 0.00 | 0.05 | 92 | 1014.0 |
| 20260504043005 | 22 | 222 | 0.0 | 1.6 | 0.00 | 0.00 | 0.05 | 90 | 1014.0 |
| 20260504042005 | 22 | 222 | 0.0 | 1.6 | 0.00 | 0.00 | 0.05 | 86 | 1014.0 |
| 20260504040006 | 22 | 222 | 0.0 | 0.0 | 0.00 | 0.00 | 0.05 | 92 | 1014.0 |
| 20260504035005 | 22 | 222 | 0.0 | 0.0 | 0.00 | 0.00 | 0.05 | 92 | 1014.1 |
| 20260504032006 | 22 | 222 | 0.0 | 1.6 | 0.00 | 0.00 | 0.05 | 86 | 1014.4 |
| 20260504031005 | 23 | 222 | 0.0 | 3.2 | 0.00 | 0.00 | 0.05 | 82 | 1014.5 |
| 20260504030006 | 22 | 212 | 0.0 | 1.6 | 0.00 | 0.00 | 0.05 | 83 | 1014.6 |
| 20260504025005 | 22 | 251 | 0.0 | 0.0 | 0.00 | 0.00 | 0.05 | 91 | 1014.6 |